Location: Igon
(43.1667°N, 0.2333°W)
Time: 06:54:49
(UTC+00:00)

NOAA 16 DEB - Pass Details

Date: 21 June 2021
Orbit: 682 x 809 km, 98.9° (Epoch: 03 August)

Event Time Altitude Azimuth Distance (km) Brightness Sun altitude
Rises 02:13:04 0° 109° (ESE) 3,324 ? -17.0°
Reaches altitude 10° 02:16:46 10° 82° (E) 2,400 ? -16.6°
Maximum altitude 02:19:01 13° 57° (ENE) 2,205 ? -16.4°
Drops below altitude 10° 02:21:16 10° 31° (NNE) 2,398 ? -16.2°
Sets 02:24:57 0° 5° (N) 3,320 ? -15.8°
